EB5ETD Weather Reports


Display with metric or nautical units.
time (UTC)temp
F
wind
direction
speed
MPH
gust
MPH
rain 1hr
in
rain 24hr
in
rain mn
in
humidity
%
barometer
mb
20260510193503 63 231 1.0 2.0 0.00 0.00 0.00 69 1020.0
20260510193005 63 129 0.0 2.0 0.00 0.00 0.00 68 1019.8
20260510192004 64 183 1.0 3.0 0.00 0.00 0.00 67 1019.7
20260510191504 64 220 1.0 5.0 0.00 0.00 0.00 66 1019.9
20260510191004 64 242 2.0 6.0 0.00 0.00 0.00 66 1019.7
20260510190503 64 54 1.0 3.0 0.00 0.00 0.00 66 1019.6
20260510185003 65 49 2.0 5.0 0.00 0.00 0.00 65 1019.2
20260510184504 65 157 2.0 7.0 0.00 0.00 0.00 64 1019.0
20260510184004 65 259 3.0 10.0 0.00 0.00 0.00 63 1018.8
20260510183503 65 235 3.0 10.0 0.00 0.00 0.00 63 1018.8
20260510183004 65 242 5.0 8.0 0.00 0.00 0.00 63 1018.8
20260510182504 65 270 5.0 10.0 0.00 0.00 0.00 65 1018.6
20260510182004 65 253 5.0 10.0 0.00 0.00 0.00 66 1018.8
20260510181504 65 242 3.0 9.0 0.00 0.00 0.00 65 1018.7
20260510181004 66 251 4.0 9.0 0.00 0.00 0.00 65 1018.5
20260510180504 65 249 4.0 8.0 0.00 0.00 0.00 66 1018.3
20260510180004 66 235 4.0 10.0 0.00 0.00 0.00 67 1018.0
20260510175504 66 265 3.0 10.0 0.00 0.00 0.00 66 1018.1
20260510175004 66 236 2.0 8.0 0.00 0.00 0.00 66 1017.9
20260510174504 66 260 2.0 7.0 0.00 0.00 0.00 66 1018.0
20260510174004 66 232 6.0 10.0 0.00 0.00 0.00 67 1018.1
20260510173504 66 233 4.0 9.0 0.00 0.00 0.00 67 1018.1
20260510173004 66 220 4.0 8.0 0.00 0.00 0.00 67 1018.0
20260510172504 66 248 5.0 9.0 0.00 0.00 0.00 67 1018.1
20260510171503 67 228 3.0 9.0 0.00 0.00 0.00 66 1018.3
20260510171003 67 254 4.0 12.0 0.00 0.00 0.00 65 1018.2
20260510170503 67 225 4.0 12.0 0.00 0.00 0.00 65 1018.0
20260510170003 67 235 7.0 15.0 0.00 0.00 0.00 65 1018.0
20260510165004 68 250 6.0 17.0 0.00 0.00 0.00 65 1018.0
20260510164504 68 255 6.0 17.0 0.00 0.00 0.00 65 1018.0
20260510163504 68 203 5.0 13.0 0.00 0.00 0.00 65 1017.9
20260510163004 69 228 6.0 9.0 0.00 0.00 0.00 64 1017.7
20260510162004 69 241 3.0 8.0 0.00 0.00 0.00 64 1017.4
20260510161503 69 231 3.0 12.0 0.00 0.00 0.00 64 1017.8
20260510161004 70 272 3.0 8.0 0.00 0.00 0.00 61 1017.6
20260510160504 69 261 4.0 13.0 0.00 0.00 0.00 65 1017.5
20260510160003 69 230 6.0 13.0 0.00 0.00 0.00 62 1017.8
20260510155503 68 210 4.0 12.0 0.00 0.00 0.00 65 1017.9
20260510155003 68 235 5.0 12.0 0.00 0.00 0.00 65 1018.0
20260510154504 68 229 4.0 9.0 0.00 0.00 0.00 65 1018.1
20260510154004 69 228 4.0 16.0 0.00 0.00 0.00 63 1018.0
20260510153504 69 192 5.0 13.0 0.00 0.00 0.00 61 1018.0
20260510153004 69 216 6.0 14.0 0.00 0.00 0.00 62 1018.0
20260510152504 69 208 5.0 9.0 0.00 0.00 0.00 62 1018.0
20260510152004 69 237 5.0 12.0 0.00 0.00 0.00 62 1017.9
20260510151504 70 214 5.0 10.0 0.00 0.00 0.00 63 1017.8
20260510150505 71 219 4.0 10.0 0.00 0.00 0.00 61 1017.7
20260510150003 70 235 3.0 9.0 0.00 0.00 0.00 60 1017.8
20260510145503 70 221 6.0 13.0 0.00 0.00 0.00 61 1017.9
20260510145004 70 241 4.0 10.0 0.00 0.00 0.00 62 1017.9
20260510144504 69 217 5.0 12.0 0.00 0.00 0.00 62 1018.3
20260510144004 69 204 3.0 10.0 0.00 0.00 0.00 62 1018.2
20260510143504 69 210 4.0 10.0 0.00 0.00 0.00 62 1018.2
20260510143004 69 174 5.0 9.0 0.00 0.00 0.00 61 1018.2
20260510142504 70 233 4.0 9.0 0.00 0.00 0.00 61 1018.3
20260510141503 69 276 3.0 14.0 0.00 0.00 0.00 62 1018.3
20260510141004 69 221 6.0 12.0 0.00 0.00 0.00 61 1018.5
20260510140504 69 331 6.0 12.0 0.00 0.00 0.00 62 1018.5
20260510135505 69 220 5.0 15.0 0.00 0.00 0.00 61 1018.6
20260510134005 69 245 5.0 13.0 0.00 0.00 0.00 61 1018.7
20260510133003 68 317 3.0 10.0 0.00 0.00 0.00 61 1018.7
20260510132504 68 194 5.0 10.0 0.00 0.00 0.00 61 1018.7
20260510132003 68 49 3.0 8.0 0.00 0.00 0.00 62 1018.8
20260510131503 69 269 2.0 8.0 0.00 0.00 0.00 63 1018.9
20260510131004 68 252 3.0 10.0 0.00 0.00 0.00 64 1018.9
20260510130004 68 235 4.0 12.0 0.00 0.00 0.00 63 1019.1
20260510125004 69 232 3.0 8.0 0.00 0.00 0.00 57 1019.1
20260510123508 69 218 3.0 7.0 0.00 0.00 0.00 52 1019.3
20260510122510 69 202 4.0 16.0 0.00 0.01 0.00 50 1019.5
20260510122012 69 259 5.0 10.0 0.00 0.01 0.00 50 1019.3
20260510121504 69 205 5.0 15.0 0.00 0.01 0.00 49 1019.7
20260510121005 69 207 5.0 15.0 0.00 0.02 0.00 47 1019.5
20260510120504 69 246 3.0 10.0 0.00 0.03 0.00 50 1019.6
20260510115504 69 131 3.0 12.0 0.00 0.03 0.00 50 1019.7
20260510115004 69 223 4.0 13.0 0.00 0.03 0.00 49 1019.6
20260510114504 70 229 6.0 14.0 0.00 0.04 0.00 48 1019.8
20260510114004 70 172 3.0 12.0 0.00 0.04 0.00 47 1019.9
20260510113504 71 238 6.0 12.0 0.00 0.05 0.00 46 1019.8
20260510113004 71 232 2.0 6.0 0.00 0.06 0.00 45 1019.8
20260510112503 70 233 4.0 12.0 0.00 0.07 0.00 46 1019.7
20260510112004 69 224 2.0 6.0 0.00 0.09 0.00 46 1019.9
20260510111504 70 224 6.0 10.0 0.00 0.11 0.00 45 1019.7
20260510111004 71 185 5.0 9.0 0.00 0.14 0.00 43 1019.6
20260510110503 71 230 3.0 6.0 0.00 0.17 0.00 43 1019.7
20260510110004 70 338 2.0 6.0 0.00 0.19 0.00 45 1020.1
20260510105504 70 176 2.0 8.0 0.00 0.21 0.00 46 1020.1
20260510104504 69 243 3.0 9.0 0.00 0.32 0.00 46 1020.3
20260510104004 69 230 4.0 7.0 0.00 0.35 0.00 46 1020.2
20260510103503 69 196 5.0 9.0 0.00 0.37 0.00 48 1020.3
20260510102503 69 226 5.0 10.0 0.00 0.39 0.00 48 1020.5
20260510102004 69 234 4.0 10.0 0.00 0.41 0.00 49 1020.7
20260510101504 68 243 3.0 8.0 0.00 0.42 0.00 48 1020.8
20260510101004 68 243 2.0 12.0 0.00 0.43 0.00 48 1020.7
20260510100504 68 207 5.0 13.0 0.00 0.45 0.00 48 1021.1
20260510100003 68 245 5.0 9.0 0.00 0.46 0.00 48 1021.1
20260510095503 68 218 3.0 9.0 0.00 0.47 0.00 49 1020.9
20260510095004 67 279 2.0 8.0 0.00 0.48 0.00 49 1020.9
20260510094505 67 221 5.0 10.0 0.00 0.48 0.00 49 1021.1
20260510094004 67 220 3.0 8.0 0.00 0.49 0.00 49 1021.0
20260510093004 67 207 5.0 12.0 0.00 0.50 0.00 49 1021.0
20260510092504 66 202 4.0 9.0 0.00 0.50 0.00 49 1021.0
20260510092005 66 247 5.0 13.0 0.00 0.51 0.00 50 1021.1
20260510091503 66 224 6.0 12.0 0.00 0.51 0.00 49 1021.3
20260510091004 66 243 4.0 16.0 0.00 0.56 0.00 50 1021.2
20260510090504 66 248 3.0 8.0 0.00 0.60 0.00 51 1021.4
20260510090004 66 262 5.0 13.0 0.00 0.60 0.00 49 1021.1
20260510083004 65 261 4.0 7.0 0.00 0.78 0.00 53 1021.5
20260510082004 65 219 1.0 3.0 0.00 0.82 0.00 54 1021.7
20260510081503 65 197 1.0 3.0 0.00 0.87 0.00 57 1021.5
20260510081003 64 225 1.0 3.0 0.00 0.88 0.00 61 1021.5
20260510080504 64 228 2.0 3.0 0.00 0.91 0.00 60 1021.5
20260510080004 64 120 1.0 3.0 0.00 0.96 0.00 60 1021.7
20260510075504 64 140 0.0 1.0 0.00 1.02 0.00 63 1021.6
20260510075003 64 123 1.0 2.0 0.00 1.04 0.00 61 1021.8
20260510074504 63 160 1.0 1.0 0.00 1.06 0.00 62 1021.9
20260510074005 63 225 0.0 1.0 0.00 1.08 0.00 64 1022.0
20260510073503 64 225 0.0 1.0 0.00 1.10 0.00 61 1021.8
20260510072504 61 225 1.0 2.0 0.00 1.12 0.00 70 1022.3
20260510072003 61 129 0.0 2.0 0.00 1.13 0.00 71 1022.1
20260510071504 62 133 1.0 2.0 0.00 1.14 0.00 70 1022.0
20260510071004 61 225 0.0 0.0 0.00 1.16 0.00 70 1022.2
20260510070004 61 225 0.0 1.0 0.00 1.19 0.00 71 1022.3
20260510065504 58 225 0.0 1.0 0.00 1.21 0.00 77 1022.8
20260510065004 58 225 1.0 1.0 0.00 1.22 0.00 78 1022.9
20260510064503 55 225 0.0 1.0 0.00 1.22 0.00 82 1023.0
20260510063504 55 201 1.0 3.0 0.00 1.22 0.00 82 1023.0
20260510063004 55 235 1.0 3.0 0.00 1.23 0.00 82 1023.1
20260510062504 54 242 0.0 0.0 0.00 1.23 0.00 84 1023.1
20260510062004 53 242 0.0 0.0 0.00 1.23 0.00 84 1023.2
20260510061504 52 242 0.0 0.0 0.00 1.23 0.00 85 1023.3
20260510061003 52 242 0.0 1.0 0.00 1.23 0.00 86 1023.4
20260510060504 52 242 0.0 0.0 0.00 1.23 0.00 87 1023.4
20260510055504 51 242 0.0 1.0 0.00 1.23 0.00 87 1023.5
20260510054504 51 242 0.0 1.0 0.00 1.23 0.00 87 1023.4
20260510054004 51 242 0.0 1.0 0.00 1.23 0.00 87 1023.4
20260510053503 51 242 1.0 2.0 0.00 1.23 0.00 87 1023.5
20260510053004 50 242 1.0 1.0 0.00 1.23 0.00 88 1023.2
20260510052504 50 242 1.0 2.0 0.00 1.23 0.00 88 1023.4
20260510052004 50 242 1.0 2.0 0.00 1.23 0.00 89 1023.5
20260510051503 50 242 0.0 1.0 0.00 1.23 0.00 90 1023.3
20260510051003 49 242 0.0 2.0 0.00 1.23 0.00 90 1023.3
20260510050504 49 203 0.0 1.0 0.00 1.23 0.00 90 1023.4
20260510050004 49 203 0.0 0.0 0.00 1.23 0.00 90 1023.4
20260510045504 49 203 0.0 0.0 0.00 1.23 0.00 90 1023.3
20260510045004 49 203 0.0 1.0 0.00 1.23 0.00 90 1023.6
20260510044505 49 215 1.0 2.0 0.00 1.23 0.00 90 1023.5
20260510043504 50 242 0.0 0.0 0.00 1.23 0.00 90 1023.2
20260510043004 50 242 0.0 1.0 0.00 1.23 0.00 90 1023.2
20260510042005 50 242 1.0 1.0 0.00 1.23 0.00 91 1023.1
20260510041504 50 242 0.0 0.0 0.00 1.23 0.00 91 1022.9
20260510041004 49 242 0.0 1.0 0.00 1.23 0.00 91 1023.0
20260510040004 50 242 0.0 0.0 0.00 1.23 0.00 91 1023.3
20260510035504 50 242 0.0 0.0 0.00 1.23 0.00 91 1022.8
20260510035004 50 242 0.0 1.0 0.00 1.23 0.00 92 1022.8
20260510034503 50 242 1.0 1.0 0.00 1.23 0.00 92 1022.8
20260510034003 50 242 0.0 1.0 0.00 1.23 0.00 92 1022.8
20260510033003 50 242 0.0 1.0 0.00 1.23 0.00 92 1022.9
20260510032004 50 242 0.0 1.0 0.00 1.23 0.00 92 1022.8
20260510031503 50 226 2.0 2.0 0.00 1.23 0.00 92 1022.8
20260510031003 50 222 1.0 1.0 0.00 1.23 0.00 93 1022.8
20260510030504 50 222 1.0 1.0 0.00 1.23 0.00 93 1022.8
20260510030004 50 221 0.0 1.0 0.00 1.23 0.00 93 1022.8
20260510025504 50 221 0.0 1.0 0.00 1.23 0.00 92 1022.8
20260510025003 50 222 1.0 2.0 0.00 1.23 0.00 92 1022.9
20260510024504 50 232 1.0 2.0 0.00 1.23 0.00 92 1022.9
20260510023504 51 232 1.0 1.0 0.00 1.23 0.00 93 1022.8
20260510023004 51 232 1.0 1.0 0.00 1.23 0.00 93 1023.0
20260510022504 51 232 0.0 1.0 0.00 1.23 0.00 93 1022.8
20260510022004 51 232 0.0 1.0 0.00 1.23 0.00 93 1022.7
20260510021004 51 241 0.0 0.0 0.00 1.23 0.00 93 1022.7
20260510020503 51 241 0.0 0.0 0.00 1.23 0.00 92 1022.9
20260510020004 51 241 0.0 1.0 0.00 1.23 0.00 93 1022.7
20260510015004 51 241 1.0 2.0 0.00 1.23 0.00 92 1022.5
20260510014504 51 241 1.0 2.0 0.00 1.23 0.00 92 1022.7
20260510014004 51 218 0.0 1.0 0.00 1.23 0.00 92 1022.5
20260510013503 51 217 1.0 2.0 0.00 1.23 0.00 92 1022.7
20260510013005 51 195 0.0 3.0 0.00 1.23 0.00 92 1022.5
20260510012504 52 225 0.0 1.0 0.00 1.23 0.00 92 1022.5
20260510012004 52 226 0.0 1.0 0.00 1.23 0.00 92 1022.6
20260510011504 52 210 1.0 2.0 0.00 1.23 0.00 92 1022.7
20260510010504 52 207 1.0 2.0 0.00 1.23 0.00 92 1022.6
20260510010004 52 220 0.0 1.0 0.00 1.23 0.00 92 1022.4
20260510005504 52 225 0.0 1.0 0.00 1.23 0.00 92 1022.4
20260510005005 52 219 1.0 1.0 0.00 1.23 0.00 91 1022.8
20260510004504 52 213 1.0 1.0 0.00 1.23 0.00 91 1022.6
20260510004004 52 207 0.0 0.0 0.00 1.23 0.00 91 1022.9
20260510003505 53 207 0.0 2.0 0.00 1.23 0.00 91 1023.0
20260510003004 53 218 1.0 2.0 0.00 1.23 0.00 90 1022.8
20260510002504 53 238 0.0 1.0 0.00 1.23 0.00 90 1022.9
20260510002004 53 237 1.0 2.0 0.00 1.23 0.00 89 1022.9
20260510001503 53 267 1.0 2.0 0.00 1.23 0.00 89 1023.1
20260510001004 53 216 0.0 1.0 0.00 1.23 0.00 89 1022.7
20260510000504 54 216 0.0 1.0 0.00 1.23 0.00 89 1023.0
20260510000004 54 215 1.0 2.0 0.00 1.23 0.00 88 1023.0
20260509235504 54 234 1.0 2.0 0.00 1.23 0.00 88 1023.1
20260509235003 54 237 2.0 2.0 0.00 1.23 0.00 88 1023.1
20260509234504 54 239 1.0 3.0 0.00 1.23 0.00 88 1023.1
20260509234003 54 241 2.0 5.0 0.00 1.23 0.00 88 1023.2
20260509233004 55 211 1.0 2.0 0.00 1.23 0.00 88 1023.1
20260509232503 55 196 0.0 1.0 0.00 1.23 0.00 87 1023.1
20260509232004 55 54 1.0 1.0 0.00 1.23 0.00 87 1023.0
20260509231503 55 52 1.0 2.0 0.00 1.23 0.00 87 1023.2
20260509231004 55 4 0.0 1.0 0.00 1.23 0.00 87 1023.1
20260509230504 55 4 1.0 3.0 0.00 1.23 0.00 86 1022.7
20260509225504 56 225 0.0 5.0 0.00 1.23 0.00 84 1022.7
20260509224504 56 234 3.0 6.0 0.00 1.23 0.00 84 1022.7
20260509223504 55 222 1.0 2.0 0.00 1.23 0.00 88 1022.6
20260509223003 55 227 1.0 2.0 0.00 1.23 0.00 89 1022.7
20260509222504 55 56 0.0 0.0 0.00 1.23 0.00 90 1022.8
20260509222005 55 56 0.0 0.0 0.00 1.23 0.00 89 1022.8
20260509221503 55 56 0.0 0.0 0.00 1.23 0.00 89 1022.8
20260509220504 56 56 0.0 0.0 0.00 1.23 0.00 88 1022.8
20260509220004 56 56 0.0 0.0 0.00 1.23 0.00 88 1022.9
20260509215504 56 56 0.0 0.0 0.00 1.23 1.23 88 1022.7
20260509215005 57 56 0.0 1.0 0.00 1.23 1.23 87 1022.6
20260509214504 57 56 0.0 1.0 0.00 1.23 1.23 87 1022.5
20260509214004 57 56 0.0 1.0 0.00 1.23 1.23 86 1022.4
20260509213504 57 56 0.0 2.0 0.00 1.23 1.23 85 1022.5
20260509213004 58 61 1.0 2.0 0.00 1.23 1.23 85 1022.5
20260509212503 58 61 0.0 1.0 0.00 1.23 1.23 85 1022.6
20260509212004 58 61 0.0 3.0 0.00 1.23 1.23 85 1022.6
20260509211503 58 77 2.0 3.0 0.00 1.23 1.23 85 1022.4
20260509211004 58 97 1.0 1.0 0.00 1.23 1.23 85 1022.6
20260509210504 58 98 0.0 2.0 0.00 1.23 1.23 84 1022.4
20260509210004 58 100 0.0 1.0 0.00 1.23 1.23 84 1022.2
20260509205503 58 100 2.0 3.0 0.00 1.23 1.23 83 1022.2
20260509204504 58 245 1.0 2.0 0.00 1.23 1.23 83 1021.9
20260509204004 58 262 1.0 5.0 0.00 1.23 1.23 82 1022.1
20260509203504 58 236 2.0 6.0 0.00 1.23 1.23 82 1021.9
20260509203004 58 243 2.0 9.0 0.00 1.23 1.23 82 1021.7
20260509202504 58 224 4.0 7.0 0.00 1.23 1.23 82 1021.9
20260509202003 58 250 5.0 9.0 0.00 1.23 1.23 82 1021.6
20260509201504 58 244 4.0 9.0 0.00 1.23 1.23 82 1021.7
20260509200504 58 249 4.0 9.0 0.00 1.23 1.23 83 1021.7
20260509200004 58 231 5.0 10.0 0.00 1.23 1.23 83 1021.4
20260509195504 58 240 3.0 8.0 0.00 1.23 1.23 83 1021.6
20260509195004 58 229 3.0 9.0 0.00 1.23 1.23 83 1021.3
20260509194503 58 227 4.0 10.0 0.00 1.23 1.23 83 1021.3
20260509194004 58 252 5.0 10.0 0.00 1.23 1.23 84 1021.3